Time,TemperatureF,DewpointF,PressureIn,WindDirection,WindDirectionDegrees,WindSpeedMPH,WindSpeedGustMPH,Humidity,HourlyPrecipIn,Conditions,Clouds,dailyrainin,SoftwareType,DateUTC
2013-09-21 00:02:00,60.8,56.3,29.66,SSW,203,2.5,3.6,85,0.00,,,0.00,WUHU216HW,2013-09-21 07:02:00,
2013-09-21 00:07:00,60.7,56.2,29.66,SE,135,4.0,4.0,85,0.00,,,0.00,WUHU216HW,2013-09-21 07:07:00,
2013-09-21 00:12:00,60.5,56.4,29.66,SSW,203,0.2,4.0,86,0.00,,,0.00,WUHU216HW,2013-09-21 07:12:00,
2013-09-21 00:17:00,60.5,56.4,29.66,SSE,158,2.0,4.5,86,0.00,,,0.00,WUHU216HW,2013-09-21 07:17:00,
2013-09-21 00:22:00,60.5,56.4,29.66,South,180,4.5,4.5,86,0.00,,,0.00,WUHU216HW,2013-09-21 07:22:00,
2013-09-21 00:27:00,60.1,56.0,29.66,SE,135,2.7,4.5,86,0.01,,,0.00,WUHU216HW,2013-09-21 07:27:00,
2013-09-21 00:32:00,60.1,56.0,29.65,NE,45,0.4,4.5,86,0.01,,,0.00,WUHU216HW,2013-09-21 07:32:00,
2013-09-21 00:37:00,60.1,56.0,29.66,SSE,158,2.5,4.5,86,0.01,,,0.00,WUHU216HW,2013-09-21 07:37:00,
2013-09-21 00:42:00,60.1,56.3,29.66,SW,225,0.4,2.5,87,0.01,,,0.00,WUHU216HW,2013-09-21 07:42:00,
2013-09-21 00:47:00,60.1,56.3,29.66,SE,135,0.4,2.5,87,0.01,,,0.00,WUHU216HW,2013-09-21 07:47:00,
2013-09-21 00:52:00,60.1,56.3,29.66,SW,225,0.7,2.0,87,0.01,,,0.00,WUHU216HW,2013-09-21 07:52:00,
2013-09-21 00:57:00,60.1,56.3,29.66,SSW,203,1.1,1.1,87,0.01,,,0.00,WUHU216HW,2013-09-21 07:57:00,
2013-09-21 01:02:00,60.1,56.3,29.66,South,180,1.8,1.8,87,0.01,,,0.00,WUHU216HW,2013-09-21 08:02:00,
2013-09-21 01:07:00,60.1,56.3,29.66,WSW,248,2.5,2.5,87,0.01,,,0.00,WUHU216HW,2013-09-21 08:07:00,
2013-09-21 01:12:00,60.1,56.3,29.66,NW,315,0.4,2.5,87,0.01,,,0.00,WUHU216HW,2013-09-21 08:12:00,
2013-09-21 01:17:00,60.1,56.3,29.66,WSW,248,0.4,2.5,87,0.01,,,0.00,WUHU216HW,2013-09-21 08:17:00,
2013-09-21 01:22:00,60.1,56.3,29.66,SW,225,0.2,0.9,87,0.01,,,0.00,WUHU216HW,2013-09-21 08:22:00,
2013-09-21 01:27:00,60.1,56.3,29.66,SW,225,2.2,3.4,87,0.00,,,0.00,WUHU216HW,2013-09-21 08:27:00,
2013-09-21 01:32:00,59.9,56.1,29.66,South,180,1.6,3.4,87,0.00,,,0.00,WUHU216HW,2013-09-21 08:32:00,
2013-09-21 01:37:00,59.9,56.1,29.66,WSW,248,0.9,2.9,87,0.00,,,0.00,WUHU216HW,2013-09-21 08:37:00,
2013-09-21 01:42:00,59.9,56.1,29.66,SSW,203,1.8,2.0,87,0.00,,,0.00,WUHU216HW,2013-09-21 08:42:00,
2013-09-21 01:47:00,59.9,56.1,29.66,SSW,203,0.7,2.5,87,0.00,,,0.00,WUHU216HW,2013-09-21 08:47:00,
2013-09-21 01:52:00,59.9,56.1,29.66,SW,225,0.0,2.5,87,0.00,,,0.00,WUHU216HW,2013-09-21 08:52:00,
2013-09-21 01:57:00,59.8,55.9,29.66,South,180,1.1,3.1,87,0.00,,,0.00,WUHU216HW,2013-09-21 08:57:00,
2013-09-21 02:02:00,59.8,55.9,29.67,NW,315,1.6,3.1,87,0.00,,,0.00,WUHU216HW,2013-09-21 09:02:00,
2013-09-21 02:07:00,59.4,55.5,29.66,NW,315,0.0,1.6,87,0.00,,,0.00,WUHU216HW,2013-09-21 09:07:00,
2013-09-21 02:12:00,59.4,55.5,29.67,SE,135,0.0,1.6,87,0.00,,,0.00,WUHU216HW,2013-09-21 09:12:00,
2013-09-21 02:17:00,59.2,55.4,29.67,West,270,0.4,1.6,87,0.00,,,0.00,WUHU216HW,2013-09-21 09:17:00,
2013-09-21 02:22:00,59.0,54.9,29.67,SW,225,1.3,1.3,86,0.00,,,0.00,WUHU216HW,2013-09-21 09:22:00,
2013-09-21 02:27:00,59.0,54.9,29.67,SW,225,0.2,1.3,86,0.00,,,0.00,WUHU216HW,2013-09-21 09:27:00,
2013-09-21 02:32:00,58.9,55.0,29.67,SW,225,0.2,1.3,87,0.00,,,0.00,WUHU216HW,2013-09-21 09:32:00,
2013-09-21 02:37:00,58.7,54.8,29.66,SSW,203,0.4,0.4,87,0.00,,,0.00,WUHU216HW,2013-09-21 09:37:00,
2013-09-21 02:42:00,58.7,54.8,29.66,SSW,203,0.0,1.8,87,0.00,,,0.00,WUHU216HW,2013-09-21 09:42:00,
2013-09-21 02:47:00,58.7,54.8,29.66,WSW,248,1.8,1.8,87,0.00,,,0.00,WUHU216HW,2013-09-21 09:47:00,
2013-09-21 02:52:00,58.7,54.8,29.66,WNW,293,0.4,1.8,87,0.00,,,0.00,WUHU216HW,2013-09-21 09:52:00,
2013-09-21 02:57:00,58.7,54.8,29.66,SW,225,0.2,1.8,87,0.00,,,0.00,WUHU216HW,2013-09-21 09:57:00,
2013-09-21 03:02:00,58.7,54.8,29.66,South,180,1.3,1.3,87,0.00,,,0.00,WUHU216HW,2013-09-21 10:02:00,
2013-09-21 03:07:00,58.7,54.8,29.66,SSE,158,1.3,1.3,87,0.00,,,0.00,WUHU216HW,2013-09-21 10:07:00,
2013-09-21 03:12:00,58.9,55.0,29.66,South,180,0.0,1.3,87,0.00,,,0.00,WUHU216HW,2013-09-21 10:12:00,
2013-09-21 03:17:00,58.9,55.0,29.66,SSW,203,0.0,1.3,87,0.00,,,0.00,WUHU216HW,2013-09-21 10:17:00,
2013-09-21 03:22:00,58.9,55.0,29.66,West,270,0.0,0.7,87,0.00,,,0.00,WUHU216HW,2013-09-21 10:22:00,
2013-09-21 03:27:00,58.7,54.8,29.66,West,270,0.0,0.7,87,0.00,,,0.00,WUHU216HW,2013-09-21 10:27:00,
2013-09-21 03:32:00,58.7,54.8,29.66,South,180,1.8,1.8,87,0.00,,,0.00,WUHU216HW,2013-09-21 10:32:00,
2013-09-21 03:37:00,58.7,55.2,29.66,South,180,0.0,1.8,88,0.00,,,0.00,WUHU216HW,2013-09-21 10:37:00,
2013-09-21 03:42:00,58.7,55.2,29.66,WSW,248,0.2,1.8,88,0.00,,,0.00,WUHU216HW,2013-09-21 10:42:00,
2013-09-21 03:47:00,58.9,55.4,29.66,WSW,248,0.4,0.4,88,0.00,,,0.00,WUHU216HW,2013-09-21 10:47:00,
2013-09-21 03:52:00,58.9,55.4,29.67,West,270,0.2,1.8,88,0.00,,,0.00,WUHU216HW,2013-09-21 10:52:00,
2013-09-21 03:57:00,58.9,55.4,29.67,East,90,0.0,1.8,88,0.00,,,0.00,WUHU216HW,2013-09-21 10:57:00,
2013-09-21 04:02:00,58.7,54.8,29.67,SE,135,0.4,1.1,87,0.00,,,0.00,WUHU216HW,2013-09-21 11:02:00,
2013-09-21 04:07:00,58.7,54.8,29.67,South,180,0.2,1.1,87,0.00,,,0.00,WUHU216HW,2013-09-21 11:07:00,
2013-09-21 04:12:00,58.5,54.6,29.67,SSW,203,0.0,0.7,87,0.00,,,0.00,WUHU216HW,2013-09-21 11:12:00,
2013-09-21 04:17:00,58.5,54.6,29.67,South,180,0.4,1.8,87,0.00,,,0.00,WUHU216HW,2013-09-21 11:17:00,
2013-09-21 04:22:00,58.3,54.5,29.67,South,180,0.0,1.8,87,0.00,,,0.00,WUHU216HW,2013-09-21 11:22:00,
2013-09-21 04:27:00,58.3,54.5,29.67,SSW,203,0.2,1.1,87,0.00,,,0.00,WUHU216HW,2013-09-21 11:27:00,
2013-09-21 04:32:00,58.3,54.8,29.67,SW,225,1.1,1.1,88,0.00,,,0.00,WUHU216HW,2013-09-21 11:32:00,
2013-09-21 04:37:00,58.1,54.3,29.68,WNW,293,0.4,1.6,87,0.00,,,0.00,WUHU216HW,2013-09-21 11:37:00,
2013-09-21 04:42:00,58.0,54.1,29.68,WNW,293,0.0,1.6,87,0.00,,,0.00,WUHU216HW,2013-09-21 11:42:00,
2013-09-21 04:47:00,58.0,54.5,29.68,SSE,158,0.0,0.4,88,0.00,,,0.00,WUHU216HW,2013-09-21 11:47:00,
2013-09-21 04:52:00,58.0,54.5,29.68,SW,225,0.2,0.4,88,0.00,,,0.00,WUHU216HW,2013-09-21 11:52:00,
2013-09-21 04:57:00,58.0,54.1,29.68,SW,225,0.0,0.4,87,0.00,,,0.00,WUHU216HW,2013-09-21 11:57:00,
2013-09-21 05:02:00,58.0,54.1,29.68,South,180,1.1,2.9,87,0.00,,,0.00,WUHU216HW,2013-09-21 12:02:00,
2013-09-21 05:07:00,58.0,54.1,29.68,WSW,248,0.2,2.9,87,0.00,,,0.00,WUHU216HW,2013-09-21 12:07:00,
2013-09-21 05:12:00,58.1,54.3,29.68,SW,225,0.4,0.9,87,0.00,,,0.00,WUHU216HW,2013-09-21 12:12:00,
2013-09-21 05:17:00,58.1,54.3,29.68,South,180,1.1,1.1,87,0.00,,,0.00,WUHU216HW,2013-09-21 12:17:00,
2013-09-21 05:22:00,58.1,54.3,29.68,West,270,0.2,1.3,87,0.00,,,0.00,WUHU216HW,2013-09-21 12:22:00,
2013-09-21 05:27:00,58.0,54.5,29.68,WSW,248,0.4,1.8,88,0.00,,,0.00,WUHU216HW,2013-09-21 12:27:00,
2013-09-21 05:32:00,58.0,54.5,29.68,South,180,1.1,1.8,88,0.00,,,0.00,WUHU216HW,2013-09-21 12:32:00,
2013-09-21 05:37:00,58.0,54.5,29.68,SE,135,2.5,2.5,88,0.00,,,0.00,WUHU216HW,2013-09-21 12:37:00,
2013-09-21 05:42:00,58.0,54.5,29.68,South,180,0.4,2.5,88,0.00,,,0.00,WUHU216HW,2013-09-21 12:42:00,
2013-09-21 05:47:00,58.0,54.5,29.68,SSW,203,0.9,2.5,88,0.00,,,0.00,WUHU216HW,2013-09-21 12:47:00,
2013-09-21 05:52:00,58.0,54.5,29.68,SE,135,0.0,0.9,88,0.00,,,0.00,WUHU216HW,2013-09-21 12:52:00,
2013-09-21 05:57:00,58.0,54.5,29.68,SSE,158,0.4,1.1,88,0.00,,,0.00,WUHU216HW,2013-09-21 12:57:00,
2013-09-21 06:02:00,58.0,54.5,29.68,SSE,158,0.4,1.1,88,0.00,,,0.00,WUHU216HW,2013-09-21 13:02:00,
2013-09-21 06:07:00,58.0,54.5,29.68,North,0,0.4,0.4,88,0.00,,,0.00,WUHU216HW,2013-09-21 13:07:00,
2013-09-21 06:12:00,57.8,54.3,29.68,SSE,158,0.4,0.4,88,0.00,,,0.00,WUHU216HW,2013-09-21 13:12:00,
2013-09-21 06:17:00,57.8,54.3,29.68,SSE,158,0.4,1.1,88,0.00,,,0.00,WUHU216HW,2013-09-21 13:17:00,
2013-09-21 06:22:00,57.6,53.7,29.68,SSW,203,0.9,1.1,87,0.00,,,0.00,WUHU216HW,2013-09-21 13:22:00,
2013-09-21 06:27:00,57.6,53.7,29.68,WNW,293,0.9,0.9,87,0.00,,,0.00,WUHU216HW,2013-09-21 13:27:00,
2013-09-21 06:32:00,57.8,53.9,29.68,South,180,0.9,1.8,87,0.00,,,0.00,WUHU216HW,2013-09-21 13:32:00,
2013-09-21 06:37:00,57.8,53.9,29.68,SSW,203,0.0,1.8,87,0.00,,,0.00,WUHU216HW,2013-09-21 13:37:00,
2013-09-21 06:42:00,57.8,53.9,29.69,South,180,0.9,1.3,87,0.00,,,0.00,WUHU216HW,2013-09-21 13:42:00,
2013-09-21 06:47:00,57.6,53.7,29.69,South,180,0.0,2.2,87,0.00,,,0.00,WUHU216HW,2013-09-21 13:47:00,
2013-09-21 06:52:00,57.6,53.7,29.69,SSW,203,0.0,2.2,87,0.00,,,0.00,WUHU216HW,2013-09-21 13:52:00,
2013-09-21 06:57:00,57.8,53.9,29.69,South,180,0.2,1.1,87,0.00,,,0.00,WUHU216HW,2013-09-21 13:57:00,
2013-09-21 07:02:00,57.8,53.9,29.69,West,270,0.4,1.1,87,0.00,,,0.00,WUHU216HW,2013-09-21 14:02:00,
2013-09-21 07:07:00,57.8,53.9,29.69,West,270,1.8,2.0,87,0.00,,,0.00,WUHU216HW,2013-09-21 14:07:00,
2013-09-21 07:12:00,57.8,53.9,29.70,South,180,0.4,2.0,87,0.00,,,0.00,WUHU216HW,2013-09-21 14:12:00,
2013-09-21 07:17:00,57.8,53.9,29.70,SSW,203,1.6,1.8,87,0.00,,,0.00,WUHU216HW,2013-09-21 14:17:00,
2013-09-21 07:22:00,58.0,54.1,29.70,SW,225,0.4,1.6,87,0.00,,,0.00,WUHU216HW,2013-09-21 14:22:00,
2013-09-21 07:27:00,58.0,54.1,29.70,SW,225,0.4,1.6,87,0.00,,,0.00,WUHU216HW,2013-09-21 14:27:00,
2013-09-21 07:32:00,58.0,54.1,29.70,WSW,248,0.4,1.1,87,0.00,,,0.00,WUHU216HW,2013-09-21 14:32:00,
2013-09-21 07:37:00,58.0,54.1,29.70,SSE,158,0.2,0.4,87,0.00,,,0.00,WUHU216HW,2013-09-21 14:37:00,
2013-09-21 07:42:00,58.0,54.1,29.70,SSE,158,0.4,0.4,87,0.00,,,0.00,WUHU216HW,2013-09-21 14:42:00,
2013-09-21 07:47:00,58.0,54.1,29.70,South,180,1.1,1.1,87,0.00,,,0.00,WUHU216HW,2013-09-21 14:47:00,
2013-09-21 07:52:00,58.0,54.1,29.71,SSE,158,1.6,1.6,87,0.00,,,0.00,WUHU216HW,2013-09-21 14:52:00,
2013-09-21 07:57:00,58.0,54.1,29.71,SSW,203,0.4,1.6,87,0.00,,,0.00,WUHU216HW,2013-09-21 14:57:00,
2013-09-21 08:02:00,58.1,54.3,29.71,South,180,0.9,1.6,87,0.00,,,0.00,WUHU216HW,2013-09-21 15:02:00,
2013-09-21 08:07:00,58.1,54.3,29.71,South,180,1.1,1.6,87,0.00,,,0.00,WUHU216HW,2013-09-21 15:07:00,
2013-09-21 08:12:00,58.1,54.3,29.71,South,180,1.1,1.1,87,0.00,,,0.00,WUHU216HW,2013-09-21 15:12:00,
2013-09-21 08:17:00,58.3,54.8,29.71,South,180,0.9,1.1,88,0.00,,,0.00,WUHU216HW,2013-09-21 15:17:00,
2013-09-21 08:22:00,58.5,55.0,29.70,SSE,158,1.8,1.8,88,0.00,,,0.00,WUHU216HW,2013-09-21 15:22:00,
2013-09-21 08:27:00,58.7,55.2,29.71,South,180,2.9,3.1,88,0.00,,,0.00,WUHU216HW,2013-09-21 15:27:00,
2013-09-21 08:32:00,58.9,55.4,29.71,South,180,2.5,3.1,88,0.00,,,0.00,WUHU216HW,2013-09-21 15:32:00,
2013-09-21 08:37:00,59.2,55.4,29.71,SSE,158,1.8,3.1,87,0.00,,,0.00,WUHU216HW,2013-09-21 15:37:00,
2013-09-21 08:42:00,59.4,55.5,29.70,SSE,158,1.8,3.1,87,0.00,,,0.00,WUHU216HW,2013-09-21 15:42:00,
2013-09-21 08:47:00,59.8,55.9,29.71,SSE,158,1.1,2.7,87,0.00,,,0.00,WUHU216HW,2013-09-21 15:47:00,
2013-09-21 08:52:00,59.8,55.9,29.70,South,180,3.4,3.4,87,0.00,,,0.00,WUHU216HW,2013-09-21 15:52:00,
2013-09-21 08:57:00,59.8,55.9,29.70,SSE,158,1.8,3.4,87,0.00,,,0.00,WUHU216HW,2013-09-21 15:57:00,
2013-09-21 09:02:00,60.1,56.3,29.70,SSE,158,3.1,4.0,87,0.00,,,0.00,WUHU216HW,2013-09-21 16:02:00,
2013-09-21 09:07:00,60.3,56.2,29.71,SSE,158,1.6,4.0,86,0.00,,,0.00,WUHU216HW,2013-09-21 16:07:00,
2013-09-21 09:12:00,60.5,56.0,29.71,South,180,3.4,3.4,85,0.00,,,0.00,WUHU216HW,2013-09-21 16:12:00,
2013-09-21 09:17:00,60.5,55.6,29.71,SSE,158,1.6,3.4,84,0.00,,,0.00,WUHU216HW,2013-09-21 16:17:00,
2013-09-21 09:22:00,60.5,55.6,29.71,SSE,158,1.8,3.8,84,0.00,,,0.00,WUHU216HW,2013-09-21 16:22:00,
2013-09-21 09:27:00,60.7,55.8,29.71,SSE,158,0.7,3.8,84,0.00,,,0.00,WUHU216HW,2013-09-21 16:27:00,
2013-09-21 09:32:00,60.5,55.6,29.71,South,180,1.3,1.8,84,0.00,,,0.00,WUHU216HW,2013-09-21 16:32:00,
2013-09-21 09:37:00,60.5,55.6,29.71,SSE,158,0.9,1.3,84,0.00,,,0.00,WUHU216HW,2013-09-21 16:37:00,
2013-09-21 09:42:00,60.7,55.8,29.72,South,180,1.3,1.8,84,0.00,,,0.00,WUHU216HW,2013-09-21 16:42:00,
2013-09-21 09:47:00,60.5,55.6,29.72,SSW,203,0.4,1.8,84,0.00,,,0.00,WUHU216HW,2013-09-21 16:47:00,
2013-09-21 09:52:00,60.5,55.6,29.72,WSW,248,0.4,1.3,84,0.00,,,0.00,WUHU216HW,2013-09-21 16:52:00,
2013-09-21 09:57:00,60.7,55.8,29.72,South,180,1.1,1.8,84,0.00,,,0.00,WUHU216HW,2013-09-21 16:57:00,
2013-09-21 10:02:00,60.8,56.0,29.72,SSE,158,0.7,1.8,84,0.00,,,0.00,WUHU216HW,2013-09-21 17:02:00,
2013-09-21 10:07:00,61.0,56.2,29.72,NNE,23,0.0,1.1,84,0.00,,,0.00,WUHU216HW,2013-09-21 17:07:00,
2013-09-21 10:12:00,61.0,56.2,29.72,South,180,0.2,1.1,84,0.00,,,0.00,WUHU216HW,2013-09-21 17:12:00,
2013-09-21 10:17:00,61.0,56.2,29.72,SSE,158,1.6,1.6,84,0.00,,,0.00,WUHU216HW,2013-09-21 17:17:00,
2013-09-21 10:22:00,61.2,56.3,29.72,SSE,158,1.1,2.0,84,0.00,,,0.00,WUHU216HW,2013-09-21 17:22:00,
2013-09-21 10:27:00,61.2,56.3,29.72,SE,135,1.3,2.0,84,0.00,,,0.00,WUHU216HW,2013-09-21 17:27:00,
2013-09-21 10:32:00,61.2,56.1,29.72,SSW,203,0.2,2.0,83,0.00,,,0.00,WUHU216HW,2013-09-21 17:32:00,
2013-09-21 10:37:00,61.4,56.2,29.72,SSW,203,0.7,2.0,83,0.00,,,0.00,WUHU216HW,2013-09-21 17:37:00,
2013-09-21 10:42:00,61.4,56.2,29.72,SSW,203,0.7,1.1,83,0.00,,,0.00,WUHU216HW,2013-09-21 17:42:00,
2013-09-21 10:47:00,61.4,56.2,29.72,SSW,203,0.2,1.3,83,0.00,,,0.00,WUHU216HW,2013-09-21 17:47:00,
2013-09-21 10:52:00,61.6,56.3,29.72,SW,225,0.4,1.8,83,0.00,,,0.00,WUHU216HW,2013-09-21 17:52:00,
2013-09-21 10:57:00,61.6,56.3,29.72,South,180,2.5,2.5,83,0.00,,,0.00,WUHU216HW,2013-09-21 17:57:00,
2013-09-21 11:02:00,61.7,56.5,29.72,SSW,203,0.7,2.5,83,0.00,,,0.00,WUHU216HW,2013-09-21 18:02:00,
2013-09-21 11:07:00,61.7,56.5,29.73,South,180,0.9,2.5,83,0.00,,,0.00,WUHU216HW,2013-09-21 18:07:00,
2013-09-21 11:12:00,62.1,56.9,29.73,SSE,158,1.8,1.8,83,0.00,,,0.00,WUHU216HW,2013-09-21 18:12:00,
2013-09-21 11:17:00,62.3,57.1,29.73,SSE,158,2.5,2.5,83,0.00,,,0.00,WUHU216HW,2013-09-21 18:17:00,
2013-09-21 11:22:00,62.6,57.3,29.73,South,180,2.2,2.5,83,0.00,,,0.00,WUHU216HW,2013-09-21 18:22:00,
2013-09-21 11:27:00,62.6,57.1,29.73,SSE,158,1.6,2.5,82,0.00,,,0.00,WUHU216HW,2013-09-21 18:27:00,
2013-09-21 11:32:00,62.6,57.1,29.73,WSW,248,1.1,2.2,82,0.00,,,0.00,WUHU216HW,2013-09-21 18:32:00,
2013-09-21 11:37:00,62.8,57.3,29.73,West,270,0.9,1.6,82,0.00,,,0.00,WUHU216HW,2013-09-21 18:37:00,
2013-09-21 11:42:00,63.0,57.4,29.73,SE,135,0.9,1.1,82,0.00,,,0.00,WUHU216HW,2013-09-21 18:42:00,
2013-09-21 11:47:00,63.0,57.4,29.73,SSE,158,0.4,1.3,82,0.00,,,0.00,WUHU216HW,2013-09-21 18:47:00,
2013-09-21 11:52:00,63.2,57.3,29.73,South,180,1.8,1.8,81,0.00,,,0.00,WUHU216HW,2013-09-21 18:52:00,
2013-09-21 11:57:00,63.2,57.3,29.73,South,180,0.2,2.7,81,0.00,,,0.00,WUHU216HW,2013-09-21 18:57:00,
2013-09-21 12:02:00,63.4,57.4,29.73,SSE,158,2.2,4.5,81,0.00,,,0.00,WUHU216HW,2013-09-21 19:02:00,
2013-09-21 12:07:00,63.5,57.6,29.73,SSW,203,1.1,4.5,81,0.00,,,0.00,WUHU216HW,2013-09-21 19:07:00,
2013-09-21 12:12:00,63.7,57.4,29.73,SE,135,1.8,2.5,80,0.00,,,0.00,WUHU216HW,2013-09-21 19:12:00,
2013-09-21 12:17:00,63.9,57.6,29.73,South,180,4.0,4.0,80,0.00,,,0.00,WUHU216HW,2013-09-21 19:17:00,
2013-09-21 12:22:00,64.3,58.0,29.73,South,180,3.8,4.0,80,0.00,,,0.00,WUHU216HW,2013-09-21 19:22:00,
2013-09-21 12:27:00,64.4,58.1,29.73,SSW,203,2.9,4.0,80,0.00,,,0.00,WUHU216HW,2013-09-21 19:27:00,
2013-09-21 12:32:00,64.8,58.5,29.73,SSW,203,3.4,3.8,80,0.00,,,0.00,WUHU216HW,2013-09-21 19:32:00,
2013-09-21 12:37:00,65.0,58.7,29.72,South,180,1.6,3.4,80,0.00,,,0.00,WUHU216HW,2013-09-21 19:37:00,
2013-09-21 12:42:00,65.2,58.5,29.73,NNE,23,1.1,2.9,79,0.00,,,0.00,WUHU216HW,2013-09-21 19:42:00,
2013-09-21 12:47:00,65.2,58.5,29.72,South,180,2.2,3.8,79,0.00,,,0.00,WUHU216HW,2013-09-21 19:47:00,
2013-09-21 12:52:00,65.2,58.2,29.72,SSE,158,1.3,3.8,78,0.00,,,0.00,WUHU216HW,2013-09-21 19:52:00,
2013-09-21 12:57:00,65.5,58.5,29.72,SSE,158,2.7,6.3,78,0.00,,,0.00,WUHU216HW,2013-09-21 19:57:00,
2013-09-21 13:02:00,65.7,58.7,29.72,SSE,158,5.4,6.3,78,0.00,,,0.00,WUHU216HW,2013-09-21 20:02:00,
2013-09-21 13:07:00,65.9,58.5,29.72,SSE,158,0.7,5.4,77,0.00,,,0.00,WUHU216HW,2013-09-21 20:07:00,
2013-09-21 13:12:00,65.9,58.5,29.72,SSE,158,2.7,5.4,77,0.00,,,0.00,WUHU216HW,2013-09-21 20:12:00,
2013-09-21 13:17:00,66.2,58.8,29.72,SW,225,1.6,2.7,77,0.00,,,0.00,WUHU216HW,2013-09-21 20:17:00,
2013-09-21 13:22:00,66.4,58.6,29.72,SSE,158,0.4,3.6,76,0.00,,,0.00,WUHU216HW,2013-09-21 20:22:00,
2013-09-21 13:27:00,66.6,58.8,29.72,SSW,203,1.6,3.6,76,0.00,,,0.00,WUHU216HW,2013-09-21 20:27:00,
2013-09-21 13:32:00,66.6,58.8,29.72,SSE,158,1.8,3.4,76,0.00,,,0.00,WUHU216HW,2013-09-21 20:32:00,
2013-09-21 13:37:00,66.8,59.0,29.72,South,180,1.3,1.8,76,0.00,,,0.00,WUHU216HW,2013-09-21 20:37:00,
2013-09-21 13:42:00,66.8,58.6,29.72,SSW,203,1.6,1.8,75,0.00,,,0.00,WUHU216HW,2013-09-21 20:42:00,
2013-09-21 13:47:00,66.8,58.6,29.72,South,180,1.3,3.4,75,0.00,,,0.00,WUHU216HW,2013-09-21 20:47:00,
2013-09-21 13:52:00,66.8,58.2,29.72,SE,135,0.7,3.4,74,0.00,,,0.00,WUHU216HW,2013-09-21 20:52:00,
2013-09-21 13:57:00,66.8,58.2,29.71,SSE,158,1.1,2.2,74,0.00,,,0.00,WUHU216HW,2013-09-21 20:57:00,
2013-09-21 14:02:00,67.0,58.4,29.72,SSE,158,2.5,2.5,74,0.00,,,0.00,WUHU216HW,2013-09-21 21:02:00,
2013-09-21 14:07:00,66.6,57.7,29.71,South,180,3.8,4.0,73,0.00,,,0.00,WUHU216HW,2013-09-21 21:07:00,
2013-09-21 14:12:00,66.6,57.7,29.71,ESE,113,2.5,4.0,73,0.00,,,0.00,WUHU216HW,2013-09-21 21:12:00,
2013-09-21 14:17:00,66.6,57.7,29.71,SSW,203,1.6,3.8,73,0.00,,,0.00,WUHU216HW,2013-09-21 21:17:00,
2013-09-21 14:22:00,66.6,57.7,29.71,SSE,158,1.1,3.4,73,0.00,,,0.00,WUHU216HW,2013-09-21 21:22:00,
2013-09-21 14:27:00,66.6,57.7,29.71,SSE,158,2.7,3.4,73,0.00,,,0.00,WUHU216HW,2013-09-21 21:27:00,
2013-09-21 14:32:00,66.8,57.9,29.71,South,180,1.3,2.7,73,0.00,,,0.00,WUHU216HW,2013-09-21 21:32:00,
2013-09-21 14:37:00,67.0,58.1,29.71,South,180,2.5,2.7,73,0.00,,,0.00,WUHU216HW,2013-09-21 21:37:00,
2013-09-21 14:42:00,67.0,58.1,29.71,SSE,158,1.8,3.6,73,0.00,,,0.00,WUHU216HW,2013-09-21 21:42:00,
2013-09-21 14:47:00,67.0,58.1,29.70,ESE,113,2.5,3.6,73,0.00,,,0.00,WUHU216HW,2013-09-21 21:47:00,
2013-09-21 14:52:00,67.0,57.6,29.70,SE,135,1.1,2.5,72,0.00,,,0.00,WUHU216HW,2013-09-21 21:52:00,
2013-09-21 14:57:00,67.0,57.6,29.70,SSE,158,1.8,2.5,72,0.00,,,0.00,WUHU216HW,2013-09-21 21:57:00,
2013-09-21 15:02:00,67.0,57.6,29.70,South,180,2.2,2.2,72,0.00,,,0.00,WUHU216HW,2013-09-21 22:02:00,
2013-09-21 15:07:00,66.8,57.4,29.70,NW,315,1.3,2.2,72,0.00,,,0.00,WUHU216HW,2013-09-21 22:07:00,
2013-09-21 15:12:00,66.6,57.2,29.70,NW,315,0.7,2.2,72,0.00,,,0.00,WUHU216HW,2013-09-21 22:12:00,
2013-09-21 15:17:00,66.6,56.9,29.69,SSE,158,1.8,2.0,71,0.00,,,0.00,WUHU216HW,2013-09-21 22:17:00,
2013-09-21 15:22:00,66.8,57.1,29.70,East,90,1.3,2.9,71,0.00,,,0.00,WUHU216HW,2013-09-21 22:22:00,
2013-09-21 15:27:00,66.8,57.1,29.69,SSE,158,3.6,3.6,71,0.00,,,0.00,WUHU216HW,2013-09-21 22:27:00,
2013-09-21 15:32:00,66.8,57.1,29.69,SSW,203,0.2,3.6,71,0.00,,,0.00,WUHU216HW,2013-09-21 22:32:00,
2013-09-21 15:37:00,67.0,57.2,29.69,SSW,203,1.1,3.6,71,0.00,,,0.00,WUHU216HW,2013-09-21 22:37:00,
2013-09-21 15:42:00,67.0,57.2,29.69,SSW,203,1.1,2.5,71,0.00,,,0.00,WUHU216HW,2013-09-21 22:42:00,
2013-09-21 15:47:00,66.8,56.7,29.69,ENE,68,0.4,2.5,70,0.00,,,0.00,WUHU216HW,2013-09-21 22:47:00,
2013-09-21 15:52:00,66.8,56.7,29.69,SW,225,1.6,2.2,70,0.00,,,0.00,WUHU216HW,2013-09-21 22:52:00,
2013-09-21 15:57:00,66.8,56.7,29.69,SSE,158,1.8,1.8,70,0.00,,,0.00,WUHU216HW,2013-09-21 22:57:00,
2013-09-21 16:02:00,66.8,56.7,29.69,SSW,203,1.6,3.4,70,0.00,,,0.00,WUHU216HW,2013-09-21 23:02:00,
2013-09-21 16:07:00,66.6,56.5,29.69,SSW,203,1.1,3.4,70,0.00,,,0.00,WUHU216HW,2013-09-21 23:07:00,
2013-09-21 16:12:00,66.6,56.5,29.69,South,180,2.0,3.4,70,0.00,,,0.00,WUHU216HW,2013-09-21 23:12:00,
2013-09-21 16:17:00,66.6,56.5,29.69,SSW,203,1.6,3.4,70,0.00,,,0.00,WUHU216HW,2013-09-21 23:17:00,
2013-09-21 16:22:00,66.6,56.5,29.69,SW,225,1.1,3.4,70,0.00,,,0.00,WUHU216HW,2013-09-21 23:22:00,
2013-09-21 16:27:00,66.6,56.5,29.69,SE,135,1.1,1.6,70,0.00,,,0.00,WUHU216HW,2013-09-21 23:27:00,
2013-09-21 16:32:00,66.6,56.5,29.69,SSE,158,1.1,2.0,70,0.00,,,0.00,WUHU216HW,2013-09-21 23:32:00,
2013-09-21 16:37:00,66.6,56.5,29.69,SSE,158,4.5,4.5,70,0.00,,,0.00,WUHU216HW,2013-09-21 23:37:00,
2013-09-21 16:42:00,66.6,56.5,29.69,ESE,113,1.1,4.5,70,0.00,,,0.00,WUHU216HW,2013-09-21 23:42:00,
2013-09-21 16:47:00,66.6,56.5,29.69,South,180,1.1,1.6,70,0.00,,,0.00,WUHU216HW,2013-09-21 23:47:00,
2013-09-21 16:52:00,66.6,56.5,29.69,SSW,203,2.5,2.5,70,0.00,,,0.00,WUHU216HW,2013-09-21 23:52:00,
2013-09-21 16:57:00,66.4,56.3,29.70,South,180,0.4,2.5,70,0.00,,,0.00,WUHU216HW,2013-09-21 23:57:00,
2013-09-21 17:02:00,66.2,56.2,29.70,SSE,158,2.0,2.5,70,0.00,,,0.00,WUHU216HW,2013-09-22 00:02:00,
2013-09-21 17:07:00,66.2,56.2,29.70,SSW,203,1.1,2.0,70,0.00,,,0.00,WUHU216HW,2013-09-22 00:07:00,
2013-09-21 17:12:00,66.2,56.2,29.69,South,180,1.8,2.0,70,0.00,,,0.00,WUHU216HW,2013-09-22 00:12:00,
2013-09-21 17:17:00,66.2,56.5,29.69,SW,225,0.9,1.8,71,0.00,,,0.00,WUHU216HW,2013-09-22 00:17:00,
2013-09-21 17:22:00,66.2,56.5,29.69,SW,225,0.0,1.8,71,0.00,,,0.00,WUHU216HW,2013-09-22 00:22:00,
2013-09-21 17:27:00,66.2,56.5,29.69,South,180,1.6,1.6,71,0.00,,,0.00,WUHU216HW,2013-09-22 00:27:00,
2013-09-21 17:32:00,66.2,56.5,29.69,South,180,1.8,1.8,71,0.00,,,0.00,WUHU216HW,2013-09-22 00:32:00,
2013-09-21 17:37:00,66.2,56.5,29.69,SW,225,0.0,1.8,71,0.00,,,0.00,WUHU216HW,2013-09-22 00:37:00,
2013-09-21 17:42:00,66.2,56.5,29.69,SW,225,0.0,1.8,71,0.00,,,0.00,WUHU216HW,2013-09-22 00:42:00,
2013-09-21 17:47:00,66.2,56.5,29.68,SSW,203,0.0,0.7,71,0.00,,,0.00,WUHU216HW,2013-09-22 00:47:00,
2013-09-21 17:52:00,66.2,56.5,29.68,SSE,158,0.7,0.7,71,0.00,,,0.00,WUHU216HW,2013-09-22 00:52:00,
2013-09-21 17:57:00,65.9,56.3,29.68,SSW,203,0.2,0.7,71,0.00,,,0.00,WUHU216HW,2013-09-22 00:57:00,
2013-09-21 18:02:00,65.7,56.4,29.69,SSW,203,0.7,0.7,72,0.00,,,0.00,WUHU216HW,2013-09-22 01:02:00,
2013-09-21 18:07:00,65.7,56.4,29.69,South,180,0.9,0.9,72,0.00,,,0.00,WUHU216HW,2013-09-22 01:07:00,
2013-09-21 18:12:00,65.5,56.3,29.69,South,180,0.9,1.8,72,0.00,,,0.00,WUHU216HW,2013-09-22 01:12:00,
2013-09-21 18:17:00,65.3,56.4,29.70,SSW,203,1.3,1.8,73,0.00,,,0.00,WUHU216HW,2013-09-22 01:17:00,
2013-09-21 18:22:00,65.3,56.4,29.69,SSE,158,0.4,1.3,73,0.00,,,0.00,WUHU216HW,2013-09-22 01:22:00,
2013-09-21 18:27:00,65.2,56.3,29.69,South,180,0.2,1.3,73,0.00,,,0.00,WUHU216HW,2013-09-22 01:27:00,
2013-09-21 18:32:00,65.2,56.3,29.69,WSW,248,0.2,1.1,73,0.00,,,0.00,WUHU216HW,2013-09-22 01:32:00,
2013-09-21 18:37:00,65.0,56.2,29.70,South,180,0.0,1.1,73,0.00,,,0.00,WUHU216HW,2013-09-22 01:37:00,
2013-09-21 18:42:00,64.8,56.0,29.70,SSE,158,0.2,0.7,73,0.00,,,0.00,WUHU216HW,2013-09-22 01:42:00,
2013-09-21 18:47:00,64.8,56.0,29.70,SSE,158,0.0,0.2,73,0.00,,,0.00,WUHU216HW,2013-09-22 01:47:00,
2013-09-21 18:52:00,64.6,56.2,29.70,SSE,158,0.0,0.2,74,0.00,,,0.00,WUHU216HW,2013-09-22 01:52:00,
2013-09-21 18:57:00,64.4,56.0,29.70,SSW,203,0.2,0.2,74,0.00,,,0.00,WUHU216HW,2013-09-22 01:57:00,
2013-09-21 19:02:00,64.3,55.8,29.70,SSW,203,0.4,0.4,74,0.00,,,0.00,WUHU216HW,2013-09-22 02:02:00,
2013-09-21 19:07:00,64.1,55.6,29.70,SE,135,0.4,0.4,74,0.00,,,0.00,WUHU216HW,2013-09-22 02:07:00,
2013-09-21 19:12:00,63.9,55.4,29.70,SW,225,0.0,0.7,74,0.00,,,0.00,WUHU216HW,2013-09-22 02:12:00,
2013-09-21 19:17:00,63.7,55.3,29.70,SW,225,0.4,0.9,74,0.00,,,0.00,WUHU216HW,2013-09-22 02:17:00,
2013-09-21 19:22:00,63.7,55.3,29.70,SW,225,0.0,0.9,74,0.00,,,0.00,WUHU216HW,2013-09-22 02:22:00,
2013-09-21 19:27:00,63.4,54.9,29.70,West,270,0.4,1.1,74,0.00,,,0.00,WUHU216HW,2013-09-22 02:27:00,
2013-09-21 19:32:00,63.2,54.7,29.70,NNW,338,0.4,1.1,74,0.00,,,0.00,WUHU216HW,2013-09-22 02:32:00,
2013-09-21 19:37:00,63.0,54.5,29.71,SW,225,0.4,1.3,74,0.00,,,0.00,WUHU216HW,2013-09-22 02:37:00,
2013-09-21 19:42:00,63.0,54.5,29.70,WSW,248,0.4,1.3,74,0.00,,,0.00,WUHU216HW,2013-09-22 02:42:00,
2013-09-21 19:47:00,62.8,54.4,29.70,SSE,158,1.1,1.1,74,0.00,,,0.00,WUHU216HW,2013-09-22 02:47:00,
2013-09-21 19:52:00,62.6,53.8,29.70,SSW,203,0.4,1.1,73,0.00,,,0.00,WUHU216HW,2013-09-22 02:52:00,
2013-09-21 19:57:00,62.6,53.8,29.70,WSW,248,0.9,1.1,73,0.00,,,0.00,WUHU216HW,2013-09-22 02:57:00,
2013-09-21 20:02:00,62.5,53.6,29.70,SW,225,0.0,0.9,73,0.00,,,0.00,WUHU216HW,2013-09-22 03:02:00,
2013-09-21 20:07:00,62.3,53.5,29.70,WSW,248,0.4,0.9,73,0.00,,,0.00,WUHU216HW,2013-09-22 03:07:00,
2013-09-21 20:12:00,62.3,53.5,29.70,SSW,203,0.0,0.4,73,0.00,,,0.00,WUHU216HW,2013-09-22 03:12:00,
2013-09-21 20:17:00,62.1,53.7,29.70,SSW,203,0.7,0.9,74,0.00,,,0.00,WUHU216HW,2013-09-22 03:17:00,
2013-09-21 20:22:00,61.9,53.6,29.70,WSW,248,0.4,0.9,74,0.00,,,0.00,WUHU216HW,2013-09-22 03:22:00,
2013-09-21 20:27:00,61.7,53.4,29.70,SW,225,0.4,0.9,74,0.00,,,0.00,WUHU216HW,2013-09-22 03:27:00,
2013-09-21 20:32:00,61.7,53.7,29.70,WNW,293,0.4,0.9,75,0.00,,,0.00,WUHU216HW,2013-09-22 03:32:00,
2013-09-21 20:37:00,61.6,53.6,29.70,SSE,158,1.1,1.1,75,0.00,,,0.00,WUHU216HW,2013-09-22 03:37:00,
2013-09-21 20:42:00,61.6,53.6,29.70,SSE,158,1.8,1.8,75,0.00,,,0.00,WUHU216HW,2013-09-22 03:42:00,
2013-09-21 20:47:00,61.6,53.6,29.70,SSE,158,0.4,1.8,75,0.00,,,0.00,WUHU216HW,2013-09-22 03:47:00,
2013-09-21 20:52:00,61.6,53.6,29.71,South,180,0.7,1.8,75,0.00,,,0.00,WUHU216HW,2013-09-22 03:52:00,
2013-09-21 20:57:00,61.6,53.9,29.70,SSW,203,0.9,2.0,76,0.00,,,0.00,WUHU216HW,2013-09-22 03:57:00,
2013-09-21 21:01:00,61.7,54.1,29.70,West,270,0.4,2.5,76,0.00,,,0.00,WUHU216HW,2013-09-22 04:01:00,
2013-09-21 21:06:00,61.7,54.1,29.71,WSW,248,0.0,2.5,76,0.00,,,0.00,WUHU216HW,2013-09-22 04:06:00,
2013-09-21 21:11:00,61.7,54.1,29.70,South,180,2.9,2.9,76,0.00,,,0.00,WUHU216HW,2013-09-22 04:11:00,
2013-09-21 21:16:00,61.6,53.9,29.70,South,180,1.3,2.9,76,0.00,,,0.00,WUHU216HW,2013-09-22 04:16:00,
2013-09-21 21:21:00,61.6,53.9,29.70,South,180,0.9,2.9,76,0.00,,,0.00,WUHU216HW,2013-09-22 04:21:00,
2013-09-21 21:26:00,61.6,53.9,29.70,WSW,248,0.0,2.7,76,0.00,,,0.00,WUHU216HW,2013-09-22 04:26:00,
2013-09-21 21:31:00,61.6,53.9,29.70,SSE,158,0.7,3.1,76,0.00,,,0.00,WUHU216HW,2013-09-22 04:31:00,
2013-09-21 21:36:00,61.6,53.9,29.70,South,180,2.5,3.1,76,0.00,,,0.00,WUHU216HW,2013-09-22 04:36:00,
2013-09-21 21:41:00,61.6,53.9,29.70,ENE,68,2.2,2.5,76,0.00,,,0.00,WUHU216HW,2013-09-22 04:41:00,
2013-09-21 21:46:00,61.6,54.3,29.70,South,180,1.1,2.5,77,0.00,,,0.00,WUHU216HW,2013-09-22 04:46:00,
2013-09-21 21:51:00,61.4,54.1,29.71,SSW,203,0.4,2.2,77,0.00,,,0.00,WUHU216HW,2013-09-22 04:51:00,
2013-09-21 21:56:00,61.4,54.1,29.70,South,180,1.1,2.0,77,0.00,,,0.00,WUHU216HW,2013-09-22 04:56:00,
2013-09-21 22:01:00,61.4,54.1,29.70,SSW,203,0.9,4.7,77,0.00,,,0.00,WUHU216HW,2013-09-22 05:01:00,
2013-09-21 22:06:00,61.2,54.0,29.71,SSW,203,1.6,4.7,77,0.00,,,0.00,WUHU216HW,2013-09-22 05:06:00,
2013-09-21 22:11:00,61.2,54.0,29.71,SE,135,1.6,3.8,77,0.00,,,0.00,WUHU216HW,2013-09-22 05:11:00,
2013-09-21 22:16:00,61.2,54.0,29.71,SSE,158,2.2,2.7,77,0.00,,,0.00,WUHU216HW,2013-09-22 05:16:00,
2013-09-21 22:21:00,61.2,54.4,29.71,WSW,248,1.1,4.0,78,0.00,,,0.00,WUHU216HW,2013-09-22 05:21:00,
2013-09-21 22:26:00,61.2,54.4,29.71,SSW,203,1.3,4.7,78,0.00,,,0.00,WUHU216HW,2013-09-22 05:26:00,
2013-09-21 22:31:00,61.2,54.4,29.71,South,180,1.1,4.7,78,0.00,,,0.00,WUHU216HW,2013-09-22 05:31:00,
2013-09-21 22:36:00,61.2,54.4,29.71,South,180,1.6,2.0,78,0.00,,,0.00,WUHU216HW,2013-09-22 05:36:00,
2013-09-21 22:41:00,61.2,54.4,29.71,SE,135,0.7,4.0,78,0.00,,,0.00,WUHU216HW,2013-09-22 05:41:00,
2013-09-21 22:46:00,61.2,54.4,29.71,South,180,1.8,4.7,78,0.00,,,0.00,WUHU216HW,2013-09-22 05:46:00,
2013-09-21 22:52:00,61.2,54.7,29.71,SW,225,2.0,4.7,79,0.00,,,0.00,WUHU216HW,2013-09-22 05:52:00,
2013-09-21 22:57:00,61.2,54.7,29.71,SSE,158,0.7,2.5,79,0.00,,,0.00,WUHU216HW,2013-09-22 05:57:00,
2013-09-21 23:02:00,61.2,54.7,29.71,SSW,203,2.0,3.4,79,0.00,,,0.00,WUHU216HW,2013-09-22 06:02:00,
2013-09-21 23:07:00,61.2,54.7,29.71,SW,225,1.8,3.4,79,0.00,,,0.00,WUHU216HW,2013-09-22 06:07:00,
2013-09-21 23:12:00,61.2,54.7,29.71,South,180,1.3,4.0,79,0.00,,,0.00,WUHU216HW,2013-09-22 06:12:00,
2013-09-21 23:17:00,61.2,54.7,29.71,East,90,0.7,4.0,79,0.00,,,0.00,WUHU216HW,2013-09-22 06:17:00,
2013-09-21 23:22:00,61.0,54.6,29.71,South,180,2.5,3.8,79,0.00,,,0.00,WUHU216HW,2013-09-22 06:22:00,
2013-09-21 23:27:00,60.8,54.4,29.71,SW,225,3.4,3.8,79,0.00,,,0.00,WUHU216HW,2013-09-22 06:27:00,
2013-09-21 23:32:00,60.8,54.4,29.71,SSE,158,0.4,3.4,79,0.00,,,0.00,WUHU216HW,2013-09-22 06:32:00,
2013-09-21 23:37:00,60.8,54.4,29.71,WSW,248,1.6,3.4,79,0.00,,,0.00,WUHU216HW,2013-09-22 06:37:00,
2013-09-21 23:42:00,60.8,54.4,29.71,SW,225,0.9,2.2,79,0.00,,,0.00,WUHU216HW,2013-09-22 06:42:00,
2013-09-21 23:47:00,60.8,54.4,29.71,South,180,0.2,2.9,79,0.00,,,0.00,WUHU216HW,2013-09-22 06:47:00,
2013-09-21 23:52:00,60.7,54.2,29.71,SSW,203,1.1,2.9,79,0.00,,,0.00,WUHU216HW,2013-09-22 06:52:00,
2013-09-21 23:57:00,60.7,54.2,29.71,SSW,203,2.7,3.4,79,0.00,,,0.00,WUHU216HW,2013-09-22 06:57:00,